Wind_Speed
48 47 47 45 44 43 42 42 41 40 38 37 34 32 30 28 26 24 22 21 21 19 20 21 21 22 22 23 25 26 27 28 29 30 31 32 33 33
54 52 51 50 48 47 46 45 44 43 41 40 38 36 33 31 29 27 24 23 23 22 21 21 21 22 22 23 24 24 25 27 28 29 30 31 32 33
59 57 56 54 53 52 50 49 47 46 45 43 42 40 37 34 32 30 27 25 24 23 23 22 22 23 23 23 23 24 25 26 28 28 29 30 31 31
65 63 61 59 57 56 54 52 51 50 48 46 44 43 40 38 35 33 30 28 26 25 23 23 23 23 23 23 23 23 24 26 27 28 29 30 30 31
68 68 66 65 62 60 59 57 55 54 51 49 47 45 44 41 38 35 33 30 28 26 25 23 23 23 23 23 24 24 23 24 26 27 28 29 29 29
68 69 69 68 66 64 63 61 59 57 55 53 50 48 46 44 41 38 35 33 30 28 26 25 24 23 23 23 23 23 23 23 23 24 26 27 28 28
64 67 69 70 68 68 67 65 62 60 58 56 53 50 47 45 42 41 38 36 33 30 28 26 25 24 23 23 23 22 22 22 22 23 23 24 26 27
59 62 64 67 69 69 67 67 65 63 60 58 55 52 49 47 45 43 40 37 35 32 29 27 26 25 24 24 23 22 22 22 21 22 22 23 24 25
54 56 59 62 65 67 68 67 66 65 62 60 57 54 52 49 46 44 41 38 36 33 31 29 27 25 25 24 23 22 22 22 22 21 21 22 23 24
49 51 53 55 59 62 64 65 66 64 63 62 59 56 54 52 49 46 43 40 37 34 32 29 28 26 25 24 23 23 22 22 22 22 23 23 23 23
43 45 46 49 52 55 57 59 61 62 63 62 60 58 56 53 50 48 45 42 38 35 33 31 29 27 25 24 23 23 22 22 22 23 22 22 23 23
38 39 41 43 46 49 51 53 55 56 58 59 59 58 56 53 50 49 46 43 40 37 34 32 30 28 26 25 24 24 23 22 22 22 22 22 22 22
33 34 36 38 41 43 46 48 51 53 54 55 57 56 55 53 51 49 47 44 40 37 35 33 31 29 27 26 25 24 23 23 22 21 21 21 21 21
31 32 33 35 37 39 41 44 47 50 51 52 53 54 53 52 51 49 46 44 41 39 36 34 31 29 28 27 25 24 23 22 21 21 21 21 21 21
29 30 31 32 34 36 38 41 45 48 49 50 49 50 51 51 51 49 46 44 42 40 37 34 32 29 28 27 26 25 23 22 21 21 22 22 21 22
26 27 28 30 32 34 36 39 42 46 49 49 48 49 49 50 50 49 47 45 43 40 38 35 32 30 29 27 26 25 24 23 22 22 23 23 23 24
25 26 27 29 31 32 34 36 40 43 47 48 47 48 49 48 48 48 47 45 42 38 37 35 32 31 30 28 27 26 25 24 24 24 24 24 25 25
22 24 25 27 29 30 31 34 37 41 43 46 46 47 48 47 47 47 46 44 41 38 36 34 32 31 30 29 27 26 25 25 25 25 25 25 26 26
20 22 23 25 27 28 30 33 36 38 40 44 46 46 47 47 47 46 44 43 40 38 36 34 32 30 30 29 27 26 26 26 25 25 25 25 25 25
18 19 21 23 26 27 30 32 35 37 40 44 45 46 46 46 45 44 42 41 39 37 35 33 32 30 30 29 28 27 26 26 25 25 25 25 24 24
16 18 20 22 25 26 29 32 35 37 39 42 44 45 45 45 44 43 41 39 37 36 34 33 32 30 30 29 27 27 26 26 25 25 25 25 25 25
13 16 18 20 23 26 29 31 33 35 39 42 43 43 44 43 43 41 39 37 35 34 33 32 31 29 29 28 27 26 26 26 25 25 25 25 26 26
11 13 16 20 22 25 28 30 32 36 39 40 42 42 42 41 40 38 36 35 34 33 32 31 30 28 27 27 27 26 26 25 25 25 25 25 25 26
Wind_Direction
241 240 239 239 238 238 237 236 236 237 238 238 237 237 238 240 243 247 250 252 252 253 255 255 256 255 253 251 248 246 245 246 245 244 243 243 243 243
241 240 240 239 238 238 237 237 237 237 237 239 239 238 238 239 242 245 248 250 251 251 254 255 255 255 255 254 251 248 247 247 244 244 244 244 245 244
241 240 239 238 238 237 237 237 237 237 237 238 239 240 239 240 240 243 245 247 249 251 253 255 255 255 256 255 255 252 250 247 245 243 244 245 246 244
241 240 239 238 237 237 237 237 237 236 237 237 237 239 240 240 240 241 243 245 247 250 253 255 255 254 255 256 256 255 253 250 247 244 244 243 244 244
241 240 239 238 237 237 237 237 236 236 236 236 236 237 238 239 240 240 242 243 245 248 251 254 254 253 254 255 256 257 256 252 248 247 245 242 243 243
241 240 239 238 237 236 236 236 236 235 235 235 235 236 236 237 238 239 240 241 243 246 248 252 254 254 254 254 256 258 257 253 251 248 247 243 243 243
241 240 239 238 237 236 236 236 236 235 234 234 234 234 234 234 236 237 238 240 242 244 247 249 252 254 255 254 255 255 254 254 254 251 250 248 246 244
240 239 239 239 238 237 236 236 236 235 235 234 233 234 233 233 234 235 236 237 239 241 245 247 250 252 255 255 253 253 253 254 253 251 252 249 246 245
239 238 238 238 238 238 237 236 236 235 235 234 233 232 231 232 232 234 234 236 237 239 242 245 248 250 252 253 253 252 251 251 250 249 250 250 249 249
238 237 237 237 237 237 237 236 236 235 234 233 232 231 230 230 231 232 233 234 235 236 239 242 245 248 250 251 252 253 251 250 249 249 250 250 249 250
237 237 238 237 236 236 235 235 235 234 233 231 229 229 228 228 229 230 232 233 233 234 236 239 243 246 248 249 250 249 248 249 249 249 251 249 248 248
234 235 236 236 235 234 234 232 230 229 229 228 227 226 225 226 227 228 229 230 230 232 235 238 241 243 246 247 248 246 246 249 249 248 249 250 251 251
232 234 234 234 234 233 232 230 228 227 226 225 224 224 224 224 224 225 226 227 229 231 233 235 238 240 244 245 245 245 246 248 249 248 248 249 251 252
233 234 234 234 232 231 229 227 226 224 222 220 220 220 220 220 222 222 223 225 226 228 231 232 234 237 241 244 244 245 244 245 246 246 248 251 252 253
231 233 233 232 230 228 225 223 222 220 217 217 217 217 217 217 219 219 220 221 222 225 227 230 232 235 240 242 244 245 243 244 244 245 247 249 252 253
229 231 232 230 228 226 224 222 219 215 212 212 213 213 214 215 215 216 217 218 220 223 225 227 229 233 237 239 240 240 240 241 244 246 249 252 253 254
231 232 231 229 226 223 221 219 217 213 210 209 209 210 210 211 212 213 215 216 218 221 223 225 228 231 235 237 238 240 241 242 246 250 251 254 256 257
232 231 231 229 224 220 218 216 212 209 207 207 207 208 207 207 208 209 210 213 215 218 221 224 227 231 233 235 238 240 242 245 248 249 252 255 256 257
230 229 227 225 220 216 213 210 208 206 207 205 205 206 205 205 205 205 208 210 213 215 219 222 226 229 232 234 238 241 244 247 248 250 252 255 256 256
226 225 223 220 214 211 210 207 205 203 203 201 201 201 202 202 201 202 204 207 210 213 217 222 225 229 232 235 238 241 244 247 249 251 253 254 255 255
220 217 214 212 209 207 204 202 200 198 197 195 195 195 197 197 198 200 203 206 209 213 217 221 224 228 231 235 238 240 244 246 248 250 252 253 256 256
209 208 208 205 200 199 196 196 194 191 188 189 189 190 192 194 197 199 202 205 209 213 217 220 224 228 231 233 237 240 243 245 248 251 254 256 257 257
187 190 192 191 188 187 187 186 184 181 181 182 183 185 187 190 193 196 200 204 208 212 217 221 225 229 231 234 236 239 243 247 250 254 256 258 259 260
Height
5752 5756 5760 5764 5767 5771 5775 5779 5784 5787 5790 5794 5797 5800 5802 5805 5807 5809 5810 5811 5812 5813 5813 5814 5815 5817 5818 5818 5820 5822 5824 5826 5828 5830 5833 5835 5838 5841
5737 5741 5746 5751 5755 5760 5764 5768 5773 5777 5781 5784 5788 5791 5795 5798 5800 5802 5804 5805 5806 5807 5808 5809 5810 5811 5812 5813 5814 5815 5817 5819 5821 5823 5826 5828 5831 5833
5720 5725 5731 5736 5741 5746 5751 5756 5761 5766 5770 5775 5778 5782 5786 5790 5793 5795 5797 5799 5800 5801 5802 5803 5804 5805 5806 5807 5808 5809 5810 5812 5814 5816 5819 5821 5824 5826
5702 5708 5714 5720 5725 5731 5737 5743 5748 5754 5759 5764 5768 5772 5777 5781 5784 5787 5790 5792 5794 5795 5796 5797 5798 5799 5800 5801 5802 5803 5804 5805 5807 5809 5812 5814 5817 5819
5683 5689 5696 5703 5709 5716 5722 5728 5735 5741 5746 5752 5757 5762 5767 5771 5775 5779 5782 5785 5787 5788 5790 5791 5792 5793 5794 5795 5796 5797 5798 5799 5801 5803 5805 5807 5809 5812
5663 5669 5676 5684 5691 5699 5706 5713 5720 5726 5733 5740 5745 5750 5756 5761 5766 5770 5774 5777 5780 5782 5783 5785 5786 5787 5788 5789 5790 5791 5792 5793 5795 5796 5798 5800 5802 5805
5644 5650 5657 5665 5673 5681 5689 5697 5704 5712 5719 5726 5733 5739 5745 5751 5756 5761 5765 5769 5772 5775 5777 5778 5780 5781 5782 5784 5785 5785 5787 5788 5789 5790 5792 5794 5796 5798
5626 5632 5639 5647 5655 5663 5671 5680 5688 5697 5705 5713 5720 5727 5734 5740 5746 5751 5756 5760 5764 5767 5769 5772 5774 5775 5777 5778 5779 5780 5781 5782 5783 5785 5786 5788 5790 5792
5610 5616 5622 5629 5637 5645 5654 5663 5672 5681 5690 5699 5707 5715 5723 5730 5736 5741 5746 5751 5755 5759 5762 5765 5767 5769 5771 5772 5773 5774 5776 5777 5778 5780 5781 5783 5784 5786
5596 5601 5607 5613 5621 5628 5637 5646 5656 5665 5675 5685 5696 5704 5711 5718 5725 5731 5736 5742 5747 5751 5755 5758 5760 5762 5764 5766 5767 5769 5770 5771 5773 5775 5776 5778 5779 5781
5583 5588 5594 5600 5607 5614 5622 5632 5641 5650 5659 5670 5681 5690 5698 5706 5713 5720 5727 5734 5739 5744 5747 5751 5754 5756 5758 5760 5761 5763 5764 5766 5768 5769 5771 5772 5774 5775
5572 5577 5583 5588 5593 5600 5608 5616 5626 5635 5644 5655 5666 5676 5686 5694 5702 5710 5718 5725 5730 5736 5740 5744 5747 5749 5752 5753 5755 5757 5759 5760 5762 5763 5765 5767 5769 5770
5562 5567 5572 5577 5582 5589 5596 5604 5613 5621 5631 5641 5652 5663 5673 5683 5692 5701 5709 5716 5723 5729 5733 5736 5740 5743 5746 5747 5749 5751 5753 5754 5756 5758 5760 5761 5763 5765
5554 5558 5563 5568 5573 5579 5586 5593 5601 5609 5619 5630 5640 5651 5662 5673 5682 5691 5699 5707 5714 5720 5725 5729 5733 5736 5739 5741 5743 5745 5747 5749 5751 5753 5754 5756 5758 5759
5546 5550 5554 5559 5564 5570 5576 5583 5590 5599 5609 5620 5630 5641 5652 5662 5672 5681 5690 5698 5705 5711 5717 5722 5726 5729 5733 5735 5737 5740 5742 5744 5746 5748 5749 5751 5753 5754
5539 5543 5547 5551 5556 5561 5567 5574 5581 5590 5600 5611 5621 5631 5641 5652 5662 5672 5681 5689 5696 5703 5709 5714 5719 5723 5726 5729 5731 5734 5736 5738 5740 5742 5744 5746 5747 5748
5533 5536 5540 5544 5548 5553 5559 5566 5573 5582 5592 5602 5612 5622 5633 5643 5653 5663 5673 5681 5689 5696 5702 5707 5712 5716 5720 5723 5725 5728 5730 5732 5735 5737 5738 5740 5741 5742
5527 5530 5533 5537 5541 5546 5552 5558 5566 5574 5584 5594 5605 5615 5626 5636 5646 5656 5665 5674 5682 5689 5695 5701 5706 5710 5713 5716 5720 5722 5725 5727 5729 5730 5732 5734 5735 5736
5521 5524 5527 5531 5535 5540 5546 5552 5560 5568 5577 5587 5598 5608 5619 5629 5639 5649 5659 5667 5675 5683 5689 5695 5699 5704 5707 5711 5714 5716 5719 5721 5722 5724 5725 5727 5728 5729
5517 5519 5522 5526 5530 5535 5540 5547 5554 5562 5571 5582 5592 5603 5613 5624 5634 5643 5653 5662 5670 5677 5683 5689 5694 5698 5702 5705 5707 5710 5712 5714 5716 5718 5719 5720 5722 5723
5513 5515 5518 5521 5525 5530 5536 5542 5550 5558 5567 5577 5587 5598 5609 5619 5629 5639 5648 5657 5664 5671 5677 5683 5688 5692 5695 5698 5701 5704 5706 5708 5710 5712 5713 5714 5715 5716
5510 5512 5515 5518 5522 5527 5532 5539 5547 5554 5564 5574 5584 5595 5606 5616 5626 5636 5645 5653 5660 5666 5672 5677 5681 5685 5689 5692 5695 5697 5700 5702 5703 5705 5706 5708 5708 5709
5508 5511 5513 5517 5521 5526 5532 5538 5545 5554 5563 5573 5583 5594 5605 5615 5625 5634 5641 5649 5655 5662 5667 5672 5677 5680 5683 5686 5689 5691 5694 5695 5697 5698 5700 5700 5701 5702